CZ-4B DEB

Satellite information

Favourite Embed

Satellite Type and Status

DEBRISIN ORBIT

Key statistics

Satellite CZ-4B DEB at a glance.

Uptime

4887

Days in orbit

Revolutions

≈ 14.5

Per day

Orbit

SSO

Sun Synchronous Orbit

Inclination

98.1

Latest

Satellite identification and parameters

Extended collection of information and parameters for CZ-4B DEB.

Object identification

Identified? True

Debris? True

Object name: CZ-4B DEB

International designator: 2011-079E

Object number (NORAD): 38311

Object ID (CCSDS): 38311

Country: PEOPLES REPUBLIC OF CHINA (PRC)

Current information (Y/N): Y

RCS size: SMALL

Orbital parameters

Period: 99.342 minutes

Inclination: 98.1416 deg

SMA: 7105.283 km

Apoapsis: 801.471 km

Periapsis: 652.825 km

RAAN: 118.3434 deg

Eccentricy: 0.0104603

Argument of periapsis: 306.1549 deg

Mean anomaly: 206.1509 deg

Mean motion: 14.4954164 rev/day

Mean motion (dot): 0.00003445 rev/day2

B* drag term: 0.00084901 1/REarth

Two-line elements (TLE)

Creation date: May 8, 2025, 3:01 a.m.

Reference frame: TEME

Reference center: EARTH

Epoch: May 7, 2025, 11:09 a.m. UTC

TLE line 0: 0 CZ-4B DEB

TLE line 1: 1 38311U 11079E 25127.46500524 .00003445 00000-0 84901-3 0 9998

TLE line 2: 2 38311 98.1416 118.3434 0104603 306.1549 206.1509 14.49541640700304

Live tracking on map

Real-time ground track for satellite CZ-4B DEB.

In-orbit conjunctions

A list of the most updated potential collisions computed for object CZ-4B DEB.

Target Orbit TCA Probability of collision Miss distance Type
CZ-6A DEB LEO 2025-01-29 05:58:41 0.0002499464 254.0 (m) DEBRIS
CZ-6A DEB SSO 2024-11-12 22:41:44 0.0004035651 626.0 (m) DEBRIS
COSMOS 2251 DEB LEO 2024-11-11 06:46:17 0.0009977667 151.0 (m) DEBRIS

Associated space launch

CZ-4B DEB was lifted into orbit during the mission ‘Long March 4B | Zi Yuan 1-02C’, on board a Long March 4B space rocket.

The launch took place on Dec. 22, 2011, 3:26 a.m. from Launch Complex 7.

For more information about the launch, click the button.

Launch to space Long March 4B | Zi Yuan 1-02C
Long March 4B | Zi Yuan 1-02C

Agency: N/A

Status: Launch Successful

Launch date: Dec. 22, 2011, 3:26 a.m. UTC

Rocket: Long March 4B

Launch pad: Launch Complex 7

Location: Taiyuan Satellite Launch Center, People's Republic of China

...

Latest news about this satellite

There are no fresh news available about this satellite. Check back as we update our databases every day.


Newsletter sign-up

Weekly statistics, charts and insights to help you stay on top of the space industry.